Moline, IL

5:34 AM CDT on September 26, 2017 (GMT -0500)
Quad-City International

Weather History for KMLI - May, 2013

Change the Weather History Date:

Tuesday, May 28, 2013

  Actual Average Record
Temperature  
Mean Temperature 71 °F 66 °F  
Max Temperature 78 °F 77 °F 95 °F (2006)
Min Temperature 63 °F 55 °F 36 °F (1992)
Degree Days  
Heating Degree Days 0 3  
Month to date heating degree days 150 154  
Since 1 July heating degree days 6308 6177  
Cooling Degree Days 6 3  
Month to date cooling degree days 61 52  
Year to date cooling degree days 70 66  
Growing Degree Days 21 (Base 50)    
Moisture  
Dew Point 65 °F    
Average Humidity 87    
Maximum Humidity 100    
Minimum Humidity 73    
Precipitation  
Precipitation 0.72 in 0.14 in 2.35 in (1996)
Month to date precipitation 7.23 3.88  
Year to date precipitation 22.41 13.42  
Snow  
Snow 0.00 in 0.00 in - ()
Month to date snowfall 0.0 0.0  
Since 1 July snowfall 34.5 31.6  
Snow Depth 0.00 in    
Sea Level Pressure  
Sea Level Pressure 29.74 in    
Wind  
Wind Speed 11 mph (SSW)    
Max Wind Speed 31 mph    
Max Gust Speed 40 mph    
Visibility 8 miles    
Events Rain , Thunderstorm    
T = Trace of Precipitation, MM = Missing Value Source: NWS Daily Summary

Daily Weather History Graph

Daily Weather History Graph

Search for Another Location

Airport or City:

Trip Planner

Search our weather history database for the weather conditions in past years. The results will help you decide how hot, cold, wet, or windy it might be!

Date:

Astronomy

May. 28, 2013 Rise Set
Actual Time 5:32 AM CDT 8:26 PM CDT
Civil Twilight 4:59 AM CDT 8:59 PM CDT
Nautical Twilight 4:18 AM CDT 9:41 PM CDT
Astronomical Twilight 3:30 AM CDT 10:29 PM CDT
Moon 11:48 PM CDT (5/28) 9:22 AM CDT (5/28)
Length of Visible Light 15h 59m
Length of Day
14h 53m
Waning Gibbous, 82% of the Moon is Illuminated
May 28
Waning Gibbous
May 31
Last Quarter
Jun 8
New
Jun 16
First Quarter
Jun 23
Full

Hourly Weather History & Observations

Time (CDT) Temp. Dew Point Humidity Pressure Visibility Wind Dir Wind Speed Gust Speed Precip Events Conditions
12:52 AM 64.9 °F 64.0 °F 97% 29.78 in 8.0 mi East 5.8 mph - N/A   Overcast
1:52 AM 64.9 °F 63.0 °F 93% 29.75 in 10.0 mi ESE 8.1 mph - N/A   Overcast
2:52 AM 64.9 °F 62.1 °F 90% 29.73 in 10.0 mi SSE 4.6 mph - N/A   Overcast
3:52 AM 64.9 °F 62.1 °F 90% 29.72 in 10.0 mi Variable 3.5 mph - N/A   Mostly Cloudy
4:45 AM 66.2 °F 62.6 °F 88% 29.73 in 8.0 mi South 12.7 mph - 0.01 in Rain , Thunderstorm Light Thunderstorms and Rain
4:52 AM 66.9 °F 63.0 °F 87% 29.71 in 7.0 mi SSW 15.0 mph - 0.02 in Rain , Thunderstorm Thunderstorms and Rain
5:28 AM 68.0 °F 64.4 °F 88% 29.66 in 8.0 mi SSE 18.4 mph 35.7 mph 0.07 in Rain Light Rain
5:52 AM 68.0 °F 62.1 °F 81% 29.65 in 10.0 mi South 19.6 mph 29.9 mph 0.07 in   Partly Cloudy
6:52 AM 66.9 °F 63.0 °F 87% 29.71 in 10.0 mi SW 10.4 mph - N/A   Clear
7:52 AM 66.9 °F 62.1 °F 84% 29.74 in 10.0 mi SW 11.5 mph - N/A   Mostly Cloudy
8:52 AM 64.9 °F 62.1 °F 90% 29.73 in 10.0 mi SSW 9.2 mph - 0.00 in   Mostly Cloudy
9:52 AM 68.0 °F 62.1 °F 81% 29.72 in 10.0 mi Calm Calm - N/A   Overcast
10:21 AM 68.0 °F 62.6 °F 83% 29.72 in 10.0 mi Calm Calm - N/A   Overcast
10:52 AM 73.0 °F 64.9 °F 76% 29.70 in 10.0 mi SW 9.2 mph 23.0 mph N/A   Overcast
11:52 AM 75.0 °F 66.9 °F 76% 29.71 in 10.0 mi SW 16.1 mph 23.0 mph N/A   Overcast
12:52 PM 75.9 °F 69.1 °F 79% 29.72 in 10.0 mi SW 12.7 mph 20.7 mph N/A   Overcast
1:52 PM 77.0 °F 69.1 °F 76% 29.71 in 9.0 mi SW 10.4 mph - N/A   Overcast
2:30 PM 77.0 °F 69.8 °F 78% 29.73 in 9.0 mi SSW 12.7 mph 19.6 mph N/A   Overcast
2:52 PM 77.0 °F 70.0 °F 79% 29.73 in 9.0 mi SSW 12.7 mph 20.7 mph N/A   Overcast
3:29 PM 75.2 °F 71.6 °F 89% 29.73 in 4.0 mi SSW 10.4 mph - 0.00 in Rain Rain
3:37 PM 75.2 °F 71.6 °F 89% 29.74 in 4.0 mi SSW 6.9 mph - 0.03 in Rain Light Rain
3:52 PM 75.9 °F 71.1 °F 85% 29.73 in 8.0 mi SSW 10.4 mph - 0.03 in   Overcast
4:24 PM 75.2 °F 71.6 °F 89% 29.74 in 8.0 mi SSW 11.5 mph - 0.00 in   Mostly Cloudy
4:52 PM 78.1 °F 71.1 °F 79% 29.72 in 9.0 mi SSW 13.8 mph - 0.00 in   Partly Cloudy
5:15 PM 77.0 °F 69.8 °F 78% 29.73 in 9.0 mi SW 9.2 mph - N/A   Mostly Cloudy
5:44 PM 75.2 °F 69.8 °F 83% 29.72 in 8.0 mi SSW 12.7 mph - N/A   Scattered Clouds
5:52 PM 75.0 °F 70.0 °F 84% 29.71 in 8.0 mi SSW 8.1 mph - N/A   Partly Cloudy
6:11 PM 75.2 °F 69.8 °F 83% 29.72 in 8.0 mi SW 9.2 mph - N/A   Mostly Cloudy
6:49 PM 73.4 °F 69.8 °F 88% 29.70 in 8.0 mi South 13.8 mph - N/A   Mostly Cloudy
6:52 PM 73.9 °F 69.1 °F 85% 29.70 in 8.0 mi SSE 19.6 mph 23.0 mph N/A   Mostly Cloudy
7:07 PM 69.8 °F 66.2 °F 88% 29.68 in 10.0 mi South 19.6 mph 40.3 mph N/A   Mostly Cloudy
7:33 PM 71.6 °F 66.2 °F 83% 29.75 in 10.0 mi SSW 13.8 mph 21.9 mph N/A   Overcast
7:49 PM 71.6 °F 66.2 °F 83% 29.74 in 10.0 mi SSW 16.1 mph - N/A Thunderstorm Scattered Clouds
7:52 PM 71.1 °F 64.9 °F 81% 29.74 in 10.0 mi SSW 13.8 mph - N/A Thunderstorm Partly Cloudy
8:09 PM 69.8 °F 62.6 °F 78% 29.75 in 10.0 mi SSW 11.5 mph - N/A   Mostly Cloudy
8:52 PM 69.1 °F 64.0 °F 84% 29.77 in 10.0 mi SW 6.9 mph - N/A   Scattered Clouds
9:06 PM 69.8 °F 64.4 °F 83% 29.79 in 10.0 mi SW 8.1 mph - N/A   Mostly Cloudy
9:15 PM 69.8 °F 64.4 °F 83% 29.78 in 10.0 mi WSW 4.6 mph - N/A Thunderstorm Overcast
9:30 PM 68.0 °F 66.2 °F 94% 29.83 in 1.5 mi SW 21.9 mph 36.8 mph 0.02 in Rain , Thunderstorm Heavy Thunderstorms and Rain
9:37 PM 68.0 °F 60.8 °F 78% 29.82 in 1.0 mi WSW 13.8 mph 36.8 mph 0.37 in Rain , Thunderstorm Heavy Thunderstorms and Rain
9:42 PM 66.2 °F 60.8 °F 83% 29.78 in 2.0 mi North 9.2 mph 29.9 mph 0.45 in Rain , Thunderstorm Heavy Thunderstorms and Rain
9:50 PM 66.2 °F 60.8 °F 83% 29.78 in 6.0 mi Variable 5.8 mph - 0.49 in Rain , Thunderstorm Thunderstorms and Rain
9:52 PM 66.0 °F 61.0 °F 84% 29.79 in 6.0 mi Variable 4.6 mph - 0.49 in Rain , Thunderstorm Light Thunderstorms and Rain
10:10 PM 66.2 °F 62.6 °F 88% 29.83 in 10.0 mi WSW 10.4 mph - 0.00 in Rain Light Rain
10:21 PM 66.2 °F 62.6 °F 88% 29.83 in 10.0 mi SW 8.1 mph - 0.00 in Rain , Thunderstorm Light Rain
10:36 PM 66.2 °F 62.6 °F 88% 29.86 in 10.0 mi WSW 10.4 mph - 0.01 in Rain Light Rain
10:52 PM 66.0 °F 62.1 °F 87% 29.82 in 7.0 mi WSW 9.2 mph - 0.03 in Rain Rain
11:52 PM 64.0 °F 60.1 °F 87% 29.75 in 10.0 mi SSE 11.5 mph - 0.08 in Rain Light Rain